Hourly Data Report for October 04, 2014

All times are specified in Local Standard Time (LST). Add 1 hour to adjust for Daylight Saving Time where and when it is observed.

CLYDE RIVER A
NUNAVUT

70°29'09.000" N
68°31'01.000" W
26.50 m
2400804
71090
YCY

Download Data

Hourly Data (October 2014)
Hourly Data Report for October 4, 2014
Temp Definition
°C
Dew Point Temp Definition
°C
Rel Hum Definition
%
Wind Dir Definition
10's deg

Wind Spd Definition
km/h
Visibility Definition
km
Stn Press Definition
kPa
Hmdx Definition


Wind Chill Definition


Weather Definition


TIME
00:00 Legend Double Dagger -2.8 -5.0 85 32 34 16.1 101.15   -11 Snow
01:00 Legend Double Dagger -3.0 -5.0 86 31 34 16.1 101.18   -11 Snow
02:00 Legend Double Dagger -3.0 -4.1 92 31 34 2.8 101.22   -11 Snow
03:00 Legend Double Dagger -2.8 -5.0 85 33 34 16.1 101.25   -11 Snow
04:00 Legend Double Dagger -2.8 -4.8 86 31 30 16.1 101.27   -10 Snow
05:00 Legend Double Dagger -2.9 -4.6 88 31 30 14.5 101.29   -10 Snow
06:00 Legend Double Dagger -2.7 -5.0 84 31 26 16.1 101.31   -10 Snow
07:00 Legend Double Dagger -2.8 -4.4 89 31 26 16.1 101.33   -10 Freezing Rain
08:00 Legend Double Dagger -2.6 -4.3 88 31 26 6.4 101.33   -9 Snow
09:00 Legend Double Dagger -2.6 -5.1 83 31 32 16.1 101.38   -10 Snow
10:00 Legend Double Dagger -2.8 -4.8 86 31 34 14.5 101.39   -11 Snow
11:00 Legend Double Dagger -2.6 -5.1 83 30 26 16.1 101.42   -9 Snow
12:00 Legend Double Dagger -2.6 -5.6 80 29 22 16.1 101.46   -9 Snow
13:00 Legend Double Dagger -2.6 -6.0 77 28 24 16.1 101.49   -9 LegendNANA
14:00 Legend Double Dagger -2.6 -5.9 78 29 24 16.1 101.53   -9 LegendNANA
15:00 Legend Double Dagger -2.6 -5.9 78 28 21 16.1 101.57   -9 LegendNANA
16:00 Legend Double Dagger -2.6 -5.8 79 29 17 16.1 101.63   -8 LegendNANA
17:00 Legend Double Dagger -2.8 -6.2 78 28 15 16.1 101.67   -8 LegendNANA
18:00 Legend Double Dagger -2.8 -6.4 76 30 13 16.1 101.69   -7 LegendNANA
19:00 Legend Double Dagger -3.0 -8.5 66 30 9 16.1 101.73   -7 LegendNANA
20:00 Legend Double Dagger -5.6 -8.7 79 23 9 16.1 101.76   -10 LegendNANA
21:00 Legend Double Dagger -6.0 -9.7 75 26 9 16.1 101.79   -10 LegendNANA
22:00 Legend Double Dagger -7.3 -10.8 76 27 8 16.1 101.81   -11 LegendNANA
23:00 Legend Double Dagger -8.5 -11.3 80 27 5 16.1 101.84   -11 LegendNANA

Notes on Data Quality.

Legend

  • E = Estimated
  • M = Missing
  • NA = Not Available
  • ‡ = Partner data that is not subject to review by the National Climate Archives
Date modified: